Weather History for St. Petersburg, FL

Change the Weather History Date:

Wednesday, February 12, 2014

  Actual Average Record
Temperature  
Mean Temperature 66 °F -  
Max Temperature 73 °F 70 °F 84 °F (1959)
Min Temperature 59 °F 53 °F 35 °F (1955)
Cooling Degree Days 1    
Growing Degree Days 16 (Base 50)    
Moisture  
Dew Point 61 °F    
Average Humidity 94    
Maximum Humidity 100    
Minimum Humidity 76    
Precipitation  
Precipitation 0.82 in - - ()
Sea Level Pressure  
Sea Level Pressure 29.90 in    
Wind  
Wind Speed 9 mph (SSE)    
Max Wind Speed 21 mph    
Max Gust Speed 26 mph    
Visibility 5 miles    
Events Fog , Rain , Thunderstorm    
Averages and records for this station are not official NWS values.
T = Trace of Precipitation, MM = Missing Value Source: NWS Daily Summary

Daily Weather History Graph

Daily Weather History Graph

Search for Another Location

Airport:

Trip Planner

Search our weather history database for the weather conditions in past years. The results will help you decide how hot, cold, wet, or windy it might be!

Date:

Astronomy

Feb. 12, 2014 Rise Set
Actual Time 7:10 AM EST 6:19 PM EST
Civil Twilight 6:46 AM EST 6:43 PM EST
Nautical Twilight 6:18 AM EST 7:11 PM EST
Astronomical Twilight 5:51 AM EST 7:38 PM EST
Moon 4:35 PM EST (2/12) 5:21 AM EST (2/12)
Length of Visible Light 11h 57m
Length of Day
11h 09m
Waxing Gibbous, 95% of the Moon is Illuminated
Feb 12
Waxing Gibbous
Feb 14
Full
Feb 22
Last Quarter
Mar 1
New
Mar 8
First Quarter

Hourly Weather History & Observations

Time (EST) Temp. Dew Point Humidity Pressure Visibility Wind Dir Wind Speed Gust Speed Precip Events Conditions
12:53 AM 62.1 °F 57.0 °F 84% 30.02 in 10.0 mi NNE 3.5 mph - N/A   Clear
1:53 AM 63.0 °F 57.9 °F 84% 30.01 in 10.0 mi East 9.2 mph - N/A   Clear
2:53 AM 62.1 °F 59.0 °F 90% 29.99 in 10.0 mi ENE 9.2 mph - N/A   Clear
3:53 AM 62.1 °F 59.0 °F 90% 29.97 in 9.0 mi East 10.4 mph - N/A   Clear
4:53 AM 61.0 °F 59.0 °F 93% 29.97 in 8.0 mi ENE 10.4 mph - N/A   Clear
5:51 AM 60.8 °F 59.0 °F 94% 29.98 in 6.0 mi ENE 11.5 mph - N/A   Partly Cloudy
5:53 AM 60.1 °F 59.0 °F 96% 29.98 in 6.0 mi ENE 10.4 mph - N/A   Partly Cloudy
6:06 AM 59.0 °F 57.9 °F 96% 29.97 in 2.5 mi East 11.5 mph - N/A   Mostly Cloudy
6:16 AM 59.0 °F 59.0 °F 100% 29.98 in 1.2 mi East 11.5 mph - N/A   Overcast
6:44 AM 59.0 °F 59.0 °F 100% 29.98 in 2.5 mi East 10.4 mph - N/A   Overcast
6:53 AM 59.0 °F 59.0 °F 100% 29.99 in 3.0 mi East 8.1 mph - N/A   Overcast
7:01 AM 59.0 °F 59.0 °F 100% 29.99 in 2.5 mi ESE 8.1 mph - N/A   Overcast
7:13 AM 59.0 °F 59.0 °F 100% 29.99 in 1.0 mi East 9.2 mph - N/A   Overcast
7:24 AM 59.0 °F 59.0 °F 100% 29.99 in 0.5 mi East 8.1 mph - N/A Fog Fog
7:53 AM 59.0 °F 59.0 °F 100% 29.99 in 0.5 mi East 8.1 mph - N/A Fog Fog
8:18 AM 59.0 °F 59.0 °F 100% 30.00 in 1.2 mi ESE 10.4 mph - N/A   Overcast
8:29 AM 59.0 °F 59.0 °F 100% 30.00 in 0.5 mi ESE 9.2 mph - N/A Fog Fog
8:45 AM 59.0 °F 59.0 °F 100% 30.00 in 0.2 mi ESE 9.2 mph - N/A Fog Fog
8:53 AM 59.0 °F 59.0 °F 100% 29.99 in 0.2 mi ESE 9.2 mph - N/A Fog Fog
9:06 AM 59.0 °F 59.0 °F 100% 29.99 in 0.5 mi ESE 8.1 mph - N/A Fog Fog
9:39 AM 60.1 °F 60.1 °F 100% 29.98 in 1.0 mi SE 9.2 mph - N/A   Overcast
9:50 AM 60.8 °F 60.8 °F 100% 29.98 in 3.0 mi SE 11.5 mph - N/A   Overcast
9:53 AM 61.0 °F 60.1 °F 97% 29.98 in 3.0 mi SE 10.4 mph - N/A   Overcast
10:53 AM 64.0 °F 61.0 °F 90% 29.95 in 7.0 mi SSE 8.1 mph - N/A   Mostly Cloudy
11:04 AM 64.0 °F 61.0 °F 90% 29.95 in 6.0 mi SE 4.6 mph - N/A   Partly Cloudy
11:53 AM 68.0 °F 62.1 °F 81% 29.92 in 10.0 mi South 4.6 mph - N/A   Clear
12:53 PM 72.0 °F 64.0 °F 76% 29.88 in 10.0 mi SSW 11.5 mph 21.9 mph N/A   Clear
1:53 PM 73.0 °F 66.0 °F 79% 29.85 in 10.0 mi SW 13.8 mph - N/A   Clear
2:53 PM 72.0 °F 66.0 °F 81% 29.81 in 10.0 mi SSW 12.7 mph - N/A   Overcast
3:53 PM 71.1 °F 66.0 °F 84% 29.80 in 10.0 mi SSW 15.0 mph 19.6 mph N/A   Overcast
4:03 PM 71.1 °F 66.9 °F 87% 29.79 in 10.0 mi SW 15.0 mph 25.3 mph N/A   Overcast
4:20 PM 66.9 °F 63.0 °F 87% 29.82 in 8.0 mi WNW 13.8 mph 24.2 mph 0.00 in Rain , Thunderstorm Light Rain
4:29 PM 64.9 °F 62.1 °F 90% 29.83 in 2.5 mi NW 18.4 mph 26.5 mph 0.05 in Rain , Thunderstorm Rain
4:32 PM 64.0 °F 62.1 °F 93% 29.83 in 1.5 mi WNW 20.7 mph 26.5 mph 0.08 in Rain , Thunderstorm Heavy Thunderstorms and Rain
4:44 PM 64.0 °F 62.1 °F 93% 29.85 in 0.5 mi WNW 9.2 mph - 0.32 in Fog , Rain , Thunderstorm Heavy Thunderstorms and Rain
4:53 PM 63.0 °F 62.1 °F 97% 29.85 in 1.2 mi West 10.4 mph - 0.39 in Rain , Thunderstorm Heavy Thunderstorms and Rain
5:05 PM 63.0 °F 62.1 °F 97% 29.83 in 2.5 mi WNW 8.1 mph - 0.05 in Rain , Thunderstorm Thunderstorms and Rain
5:07 PM 63.0 °F 62.1 °F 97% 29.83 in 3.0 mi NW 8.1 mph - 0.05 in Rain , Thunderstorm Rain
5:45 PM 64.0 °F 62.1 °F 93% 29.85 in 6.0 mi West 5.8 mph - 0.10 in Rain Light Rain
5:53 PM 64.0 °F 62.1 °F 93% 29.85 in 3.0 mi West 9.2 mph - 0.12 in Rain Rain
6:32 PM 63.0 °F 62.1 °F 97% 29.85 in 5.0 mi Variable 3.5 mph - 0.15 in Rain Rain
6:53 PM 63.0 °F 62.1 °F 97% 29.85 in 4.0 mi Variable 4.6 mph - 0.21 in Rain Rain
7:02 PM 63.0 °F 62.1 °F 97% 29.84 in 4.0 mi Calm Calm - 0.03 in Rain , Thunderstorm Rain
7:17 PM 63.0 °F 61.0 °F 93% 29.84 in 8.0 mi SSW 4.6 mph - 0.05 in Rain Light Rain
7:53 PM 64.0 °F 62.1 °F 93% 29.81 in 9.0 mi South 8.1 mph - 0.08 in Rain Light Rain
8:53 PM 64.0 °F 63.0 °F 96% 29.77 in 10.0 mi SSW 13.8 mph - 0.02 in   Partly Cloudy
9:25 PM 64.0 °F 63.0 °F 96% 29.76 in 10.0 mi SSW 11.5 mph - N/A   Partly Cloudy
9:53 PM 64.0 °F 63.0 °F 96% 29.75 in 10.0 mi SSW 10.4 mph - N/A   Clear
10:53 PM 64.9 °F 63.0 °F 93% 29.73 in 10.0 mi SW 10.4 mph - N/A   Clear
11:53 PM 66.0 °F 63.0 °F 90% 29.73 in 10.0 mi SW 15.0 mph - N/A   Clear